Theta_e
295 295 295 295 294 294 294 293 292 292 292 292 291 291 291 291 291 290 291 291 291 290 290 289 289 290 290 289 289 290 290 290 290 290 291 291 291 291 290 290 290 290 289 289 288 287 287 287 287 287 286 285 285 285 285 285 285 284 283 283 282 281 282 284 283 283 280 280 283 284 284 285 286 286 285 286 285 286 286 286 287 287 287 287 286
295 294 294 294 293 293 294 293 292 291 291 291 291 291 291 291 291 291 291 291 290 290 291 290 291 291 290 291 291 291 291 290 289 290 290 290 291 291 290 290 290 289 289 288 288 287 287 286 286 286 286 285 285 285 285 284 283 283 282 281 283 281 281 283 282 282 279 280 279 279 281 284 286 286 285 285 285 285 286 287 287 286 285 286 286
294 293 294 293 294 293 292 292 292 292 292 291 291 291 291 291 291 291 291 291 291 291 290 290 291 291 290 290 290 290 291 291 291 291 291 290 290 290 290 290 289 289 288 288 287 287 286 286 286 286 286 285 284 284 284 283 282 282 282 281 280 282 281 282 281 282 278 279 279 278 278 280 283 285 286 285 285 284 285 285 285 285 284 284 284
293 293 292 293 293 293 292 292 292 292 291 292 291 291 291 291 291 291 291 291 291 291 291 291 291 291 291 290 290 289 288 290 289 289 288 288 288 289 289 289 289 288 288 288 287 286 286 286 286 286 285 285 284 283 283 283 282 282 281 280 280 278 280 280 282 280 279 277 275 277 278 278 276 279 281 283 284 283 283 283 284 283 283 283 283
293 293 293 293 293 293 293 293 293 292 292 292 292 291 291 292 292 292 292 291 291 291 291 290 290 289 289 289 289 288 288 287 287 287 287 288 288 288 288 288 288 287 287 287 287 286 286 286 285 285 285 285 284 283 282 282 283 282 281 280 279 278 277 278 280 280 278 279 277 275 274 275 277 279 278 279 283 283 282 282 283 282 282 282 282
295 294 294 294 294 293 294 293 293 292 292 293 293 292 291 291 292 292 291 291 291 291 290 289 288 288 287 287 286 286 286 286 285 286 288 288 287 288 288 287 287 287 287 287 286 286 285 285 285 284 284 284 284 283 282 282 281 281 280 280 279 279 277 276 276 279 279 278 278 278 277 273 273 275 275 272 282 281 282 282 282 282 281 281 281
295 296 296 295 294 294 293 293 293 292 292 293 292 292 291 291 291 291 290 290 290 290 290 289 287 287 286 286 287 286 286 287 288 289 288 288 289 288 288 288 288 286 286 286 286 286 285 285 285 284 284 284 284 283 281 281 281 281 280 279 278 278 277 274 275 276 277 277 277 277 277 277 276 274 271 274 272 277 280 280 280 281 280 280 280
294 294 295 295 294 294 293 293 293 293 293 291 290 290 289 289 290 289 290 290 290 289 289 288 287 287 287 286 286 286 286 286 287 287 288 287 287 287 287 288 288 287 286 285 286 285 285 284 284 284 284 283 283 282 281 281 281 281 279 279 278 277 276 275 274 275 274 274 277 275 275 276 277 276 275 272 271 270 272 277 279 280 280 279 279
295 295 294 294 294 294 294 293 292 291 290 289 288 289 289 289 289 289 289 289 289 289 288 288 287 287 287 287 286 287 287 286 287 287 287 287 286 286 286 286 287 286 286 285 285 285 284 284 284 283 283 282 282 282 281 281 280 279 277 277 276 276 276 275 274 273 274 273 274 274 275 274 274 274 275 274 271 270 270 273 274 278 278 279 279
296 296 295 294 294 293 292 290 288 288 289 289 288 288 288 289 288 289 288 289 289 288 288 287 287 287 286 286 285 286 286 286 287 286 286 286 285 285 286 286 286 286 286 285 284 284 284 284 283 282 282 282 281 281 280 280 279 278 278 277 276 275 276 275 274 274 274 274 274 273 272 272 272 272 272 272 272 272 269 270 272 272 272 275 278
294 293 293 292 291 289 288 287 288 288 288 288 288 288 289 288 288 288 288 288 288 287 287 287 287 286 286 285 285 284 285 285 284 284 285 285 284 285 285 285 286 285 286 285 285 283 283 283 282 282 282 282 281 280 279 279 278 278 277 276 276 275 274 274 274 274 274 274 273 273 272 272 271 270 271 272 272 271 271 271 272 273 273 273 275
292 291 289 288 287 287 287 286 287 287 288 288 288 288 288 288 288 286 286 286 286 286 286 286 286 286 285 285 284 284 284 283 283 283 283 283 283 283 284 284 284 284 285 284 284 284 282 282 282 281 280 280 280 280 279 279 278 277 277 276 275 275 274 274 273 272 272 272 272 273 272 272 272 271 271 271 270 270 270 269 270 271 271 272 274
290 289 287 286 285 285 286 286 287 286 287 287 287 288 288 287 286 284 283 284 283 283 283 283 283 283 283 282 282 283 283 282 282 282 283 282 283 282 282 282 283 282 283 283 284 283 283 281 280 280 280 280 280 279 279 278 278 277 276 275 275 274 274 273 273 273 272 272 272 273 272 272 271 272 272 271 271 271 270 268 269 271 268 269 272
289 288 286 285 285 285 286 286 286 286 286 286 286 285 285 285 284 283 281 281 281 281 281 280 280 280 280 280 280 280 280 280 280 280 281 281 282 281 281 281 282 282 282 282 283 283 282 282 281 280 280 280 279 278 278 278 277 276 276 275 274 274 274 273 272 272 272 272 272 271 271 271 271 272 271 271 270 269 268 268 267 269 269 268 270
287 286 285 286 285 286 286 286 286 285 285 285 284 284 283 282 282 281 280 280 280 280 279 279 279 279 279 279 278 278 278 278 278 279 279 279 280 280 280 281 281 281 281 282 282 282 281 281 280 279 279 278 278 277 277 277 276 276 275 275 275 274 274 273 272 272 271 271 271 271 271 271 271 271 271 270 271 270 269 268 267 265 266 268 267
285 285 284 285 286 286 286 285 285 285 284 284 283 283 282 281 281 280 279 279 279 278 278 278 278 278 277 277 277 277 277 277 277 278 278 278 277 278 278 279 280 281 282 281 281 281 280 279 279 278 278 278 277 277 276 276 275 275 274 274 273 274 273 272 272 272 271 271 270 270 270 270 271 270 271 270 270 270 270 269 269 267 264 263 266
284 284 284 285 286 286 285 285 284 284 283 282 282 282 281 280 279 279 278 278 278 278 277 277 277 276 276 276 276 276 276 275 276 276 276 277 277 278 279 279 280 281 281 281 280 279 279 278 277 277 277 277 276 276 276 275 275 274 274 273 273 273 273 272 272 272 272 271 270 270 269 269 270 270 270 270 270 270 270 269 269 267 266 264 263
284 285 285 285 285 285 285 284 284 283 282 281 280 280 280 280 279 278 278 277 277 277 277 276 276 276 276 275 275 275 275 275 276 275 275 276 277 277 278 278 279 280 279 279 278 277 277 277 276 276 276 275 275 275 275 275 274 274 274 273 273 273 272 272 272 272 271 271 271 270 270 269 270 270 269 270 270 269 269 268 268 268 268 265 265
283 284 285 284 284 284 284 283 283 282 281 280 280 279 279 279 278 278 277 277 276 276 276 276 276 276 276 275 275 275 275 275 275 275 275 275 275 276 276 276 277 277 277 277 276 276 275 275 275 275 275 274 275 274 274 274 274 273 273 273 273 273 272 271 272 271 271 271 270 269 269 269 269 268 269 268 269 268 268 268 268 268 267 267 265
284 284 284 284 284 284 284 283 282 281 280 279 279 278 278 278 277 277 277 276 276 275 276 275 275 275 275 275 275 274 275 274 275 275 275 274 274 274 275 275 275 276 274 275 274 274 274 273 274 274 274 274 274 274 274 274 273 273 273 273 273 272 271 271 271 271 271 270 269 268 269 268 269 269 268 268 268 268 268 268 267 267 267 267 267
284 285 285 285 284 284 283 282 281 280 280 279 278 277 277 277 277 277 276 275 275 275 275 275 275 275 274 274 274 273 274 274 274 275 274 274 274 274 274 274 274 273 273 273 273 273 273 273 273 274 274 274 273 273 274 273 273 272 273 272 272 272 271 270 271 270 270 269 269 268 268 268 269 267 267 267 268 268 267 267 267 267 266 266 266
285 285 285 285 284 283 282 282 281 279 278 278 277 277 277 277 277 276 276 275 275 275 275 275 275 274 274 273 273 273 274 274 273 274 273 274 274 274 274 273 272 273 272 272 272 273 273 273 274 274 274 274 274 273 273 273 272 272 272 272 271 271 271 270 270 269 270 269 269 268 267 267 268 267 266 266 267 267 266 266 266 266 266 266 267
286 286 285 285 284 282 281 280 279 279 278 278 277 276 276 276 276 276 275 275 275 275 275 275 274 274 273 273 273 273 273 273 273 273 273 273 273 273 273 271 272 272 273 272 273 273 273 274 274 274 273 273 273 273 273 273 272 272 271 271 271 271 270 269 269 269 269 269 268 267 267 267 267 266 266 266 266 266 266 265 265 266 265 265 266
287 286 286 284 283 282 281 279 279 278 278 277 277 277 276 276 275 276 275 275 275 274 274 274 274 273 273 273 273 273 272 272 272 273 272 272 271 271 272 271 272 273 272 273 274 274 274 274 273 273 274 273 273 273 272 273 272 271 271 271 271 270 270 269 269 269 268 268 267 267 267 268 267 266 266 266 266 266 266 265 265 265 265 265 266
286 285 284 283 282 280 280 279 279 278 278 277 277 276 276 275 275 275 275 275 274 275 274 274 273 273 272 272 272 272 271 271 271 271 270 270 270 270 271 271 271 271 272 273 274 274 274 273 273 273 273 273 273 273 272 272 272 271 271 270 270 270 269 269 269 269 268 268 267 267 267 266 266 265 265 265 265 265 265 265 265 265 265 265 265
285 285 283 282 281 281 280 279 279 278 278 277 277 276 276 275 275 275 274 275 274 274 274 273 273 272 271 270 270 270 270 271 270 270 269 269 269 269 269 270 271 272 272 273 273 273 273 273 273 273 273 273 273 273 272 272 271 271 271 270 270 269 269 269 269 268 268 268 267 267 266 266 265 264 264 264 264 264 264 264 264 264 264 265 264
285 284 283 282 281 280 280 280 279 279 278 277 276 276 275 275 274 274 274 274 274 274 273 272 272 272 270 270 270 271 271 270 269 268 268 268 268 268 269 270 271 271 271 271 271 271 272 272 272 272 272 272 272 272 271 271 271 270 270 269 269 269 269 268 268 268 268 267 267 267 266 266 265 264 264 263 263 263 263 262 263 263 263 263 263
285 284 283 282 281 281 280 280 279 278 278 277 276 276 275 274 274 273 273 274 274 273 272 271 271 271 270 269 270 270 270 269 268 267 267 267 268 269 269 270 270 269 269 270 270 270 270 271 271 271 271 271 271 270 270 270 270 270 269 268 268 268 267 267 267 267 267 267 267 266 266 265 265 264 264 263 263 262 263 262 263 263 262 262 261
284 283 283 282 281 280 280 279 279 278 277 276 276 275 275 274 274 274 273 272 273 273 272 271 270 270 270 270 270 269 268 267 266 266 266 267 268 269 269 269 268 269 268 269 269 269 268 268 269 269 269 269 269 269 269 269 268 268 267 267 267 267 266 266 266 266 266 266 266 266 265 265 265 266 266 265 265 264 263 262 263 263 262 262 261
284 284 283 283 282 281 280 279 278 277 276 276 275 274 274 273 273 273 273 273 273 272 271 270 270 269 270 269 268 266 265 265 266 266 267 268 268 268 267 267 267 267 267 267 267 267 266 266 266 267 267 267 267 267 268 269 269 268 267 266 266 266 265 265 265 265 265 265 265 265 265 266 266 266 266 266 266 266 266 264 263 263 262 262 261
284 284 284 283 282 281 280 279 278 277 276 275 275 274 274 273 273 272 272 272 272 271 271 270 269 269 268 266 265 265 265 265 266 267 267 267 267 267 266 266 266 266 266 266 266 266 265 266 265 265 265 265 265 266 268 269 270 271 269 268 267 266 265 265 265 264 264 265 265 265 265 266 266 266 266 266 266 266 266 266 266 266 265 263 262
285 285 284 283 282 281 280 279 278 277 277 275 275 274 273 272 273 271 272 272 271 270 269 269 269 266 264 264 265 265 266 266 267 266 266 266 266 265 265 265 265 265 265 265 265 265 264 264 264 264 264 264 264 266 268 269 270 271 271 268 268 267 267 266 265 265 265 265 265 265 265 265 265 264 264 264 265 266 266 267 267 267 266 267 267
285 285 284 283 282 281 280 279 278 277 276 275 275 273 272 272 272 271 271 271 270 269 268 267 265 264 264 265 265 266 266 266 266 266 266 266 265 265 264 264 264 265 265 264 264 264 263 264 264 263 262 263 263 266 268 269 270 271 271 270 268 268 267 267 267 266 265 265 265 265 265 266 265 266 266 264 263 263 265 266 266 267 267 267 269
286 285 284 283 283 281 280 279 278 277 276 276 275 273 273 272 272 271 270 269 268 267 265 265 265 265 265 265 266 266 265 265 266 266 265 265 264 264 264 264 264 264 263 263 263 263 263 263 262 262 262 262 262 264 267 268 269 270 271 270 268 267 267 266 266 266 266 266 266 265 265 265 266 266 265 265 264 263 262 263 263 264 264 265 267
285 284 284 283 282 281 279 278 277 276 275 274 273 273 272 271 271 269 269 267 266 265 264 264 264 265 265 265 266 265 265 265 265 265 265 264 264 264 264 264 264 264 263 263 263 262 263 262 262 262 262 262 262 265 267 268 269 270 270 270 267 267 267 266 267 266 266 266 266 266 265 265 265 265 265 265 264 264 263 262 262 262 262 263 264
285 284 283 282 281 280 278 277 277 275 274 273 272 272 271 270 269 268 267 265 264 264 264 264 264 264 265 265 265 265 264 264 264 264 264 264 263 263 263 263 263 263 263 263 263 263 262 262 262 261 261 260 261 266 267 268 269 270 270 267 266 266 266 265 265 266 266 266 266 266 265 265 265 265 266 267 267 265 264 263 262 262 262 263 263
285 284 283 282 281 279 278 277 275 274 273 272 272 271 269 268 266 266 264 264 264 263 263 264 264 265 265 265 265 264 264 263 264 263 262 263 262 262 262 263 262 262 262 262 262 262 263 262 262 261 260 260 261 264 266 268 269 269 268 266 265 265 265 264 264 265 265 265 265 265 265 264 264 264 265 268 269 267 264 263 263 262 262 262 262
283 282 282 281 279 278 277 275 273 273 272 272 271 269 268 266 265 264 264 263 263 263 264 264 264 264 265 264 264 264 263 263 263 262 262 262 262 262 262 263 262 262 262 262 262 262 262 262 262 261 261 260 261 262 265 267 268 269 268 265 265 264 264 264 264 264 264 264 265 266 266 264 264 263 266 268 269 267 264 263 263 263 262 262 262
281 280 278 277 277 276 275 273 272 271 271 271 269 268 267 265 265 264 264 263 263 264 264 264 264 265 265 264 264 263 263 262 262 262 262 262 262 262 262 262 262 261 261 262 262 261 261 262 262 262 262 261 261 261 265 266 267 268 267 265 264 264 263 263 263 263 264 264 264 265 266 265 265 265 268 268 269 267 264 264 263 262 262 261 262
279 279 278 276 275 273 272 272 271 271 270 269 268 267 266 266 265 265 264 263 264 264 265 265 265 265 264 264 264 263 262 262 261 261 262 261 262 261 261 261 261 262 261 262 262 262 261 261 262 262 261 261 260 260 261 265 267 267 268 265 264 263 262 262 262 262 262 263 263 263 264 266 268 269 269 269 269 269 265 264 264 263 262 261 263
277 276 275 274 273 272 272 271 271 270 269 269 267 267 265 265 265 264 264 264 265 265 265 265 265 264 264 263 263 263 261 261 261 261 261 260 261 260 260 260 260 260 260 260 260 260 260 260 260 260 260 260 260 259 260 265 266 267 268 267 264 263 263 262 262 262 262 262 262 263 263 265 266 268 269 269 268 269 269 265 264 263 263 264 266
276 274 274 273 272 272 271 270 270 269 268 268 267 266 265 265 264 264 264 265 265 265 265 265 264 264 263 263 263 263 262 261 261 260 260 259 260 260 259 259 259 259 259 258 258 259 259 259 259 259 259 259 260 260 259 262 265 267 267 268 264 263 264 263 262 262 262 262 262 263 263 264 266 268 268 269 269 269 269 266 266 269 269 269 266
273 273 273 272 270 270 270 269 269 268 268 267 267 265 265 264 263 264 265 265 265 265 264 264 263 263 262 262 262 262 261 261 260 259 259 258 259 259 259 258 257 257 257 256 256 257 257 257 257 258 259 259 260 260 261 260 262 265 266 267 267 266 267 265 263 261 262 262 263 263 263 264 267 268 269 269 268 269 268 267 269 270 270 270 268
274 273 272 271 270 269 269 269 268 268 267 267 266 265 264 264 264 265 265 264 264 264 264 263 262 262 262 261 261 261 260 260 259 259 258 258 257 258 258 258 258 257 257 257 257 257 257 257 257 258 259 260 260 260 261 261 260 263 265 266 267 267 268 265 264 263 263 263 263 263 264 266 268 268 269 268 269 268 266 269 270 269 268 268 266
273 273 272 271 270 269 268 268 267 267 266 266 266 264 264 263 265 265 264 263 263 263 262 262 261 261 260 260 260 260 260 259 259 259 258 258 257 257 257 258 258 257 257 257 257 258 258 258 258 258 259 260 261 261 261 261 261 261 264 265 266 266 266 265 263 263 264 264 265 267 268 268 268 268 268 268 267 266 268 268 266 266 266 265 264
273 272 270 270 270 269 268 267 267 267 266 265 265 265 263 264 265 264 263 263 262 261 261 260 260 260 260 260 259 259 259 259 259 259 258 258 258 258 258 258 258 258 258 258 258 258 258 258 258 258 258 259 260 260 260 260 260 260 260 263 265 264 264 264 263 263 264 265 267 267 266 265 265 265 264 263 263 263 264 264 265 265 264 263 263
271 271 269 269 269 268 267 267 266 266 265 265 264 265 264 265 264 263 263 262 261 261 260 260 259 260 260 259 258 259 259 259 258 258 259 259 259 259 258 257 258 258 258 258 258 258 257 258 257 258 258 258 259 259 259 259 260 259 259 260 260 260 262 262 261 261 262 262 262 262 262 263 263 263 263 263 263 263 262 262 262 262 262 262 262
272 271 269 269 268 268 267 266 266 266 265 265 264 264 264 264 263 263 262 261 260 260 259 259 259 259 260 260 259 257 257 259 260 259 259 259 259 259 258 258 257 258 257 258 258 257 257 257 257 258 258 258 258 259 259 259 260 260 260 261 261 260 260 260 260 261 261 261 261 262 262 262 262 261 261 261 261 261 261 261 261 262 262 262 263
270 269 268 268 268 267 267 266 266 267 265 264 264 264 264 263 263 262 261 260 259 259 258 259 259 259 259 259 259 260 259 259 259 259 260 260 260 259 259 259 259 259 259 258 258 258 259 259 258 258 257 257 258 258 259 262 261 262 261 261 261 261 262 261 262 262 261 261 260 260 260 260 260 259 259 259 260 260 260 260 260 260 261 261 261
270 269 268 268 268 267 267 266 266 266 265 264 264 264 263 263 263 262 261 259 258 259 258 258 258 259 259 259 259 259 259 259 259 259 259 260 260 261 260 259 258 260 260 261 262 258 258 258 258 258 259 258 258 259 264 266 267 267 265 265 265 265 265 263 263 263 263 261 260 260 259 259 259 259 258 258 259 259 259 259 260 261 260 260 260
269 268 267 267 267 267 266 266 266 265 264 264 263 263 263 262 262 261 260 259 258 258 259 259 258 258 259 259 259 259 259 259 259 259 259 259 259 260 264 265 262 261 261 263 265 266 267 264 262 260 261 261 261 263 265 266 267 267 266 265 264 263 263 263 264 263 262 261 260 260 259 259 259 259 259 259 259 259 259 259 259 260 260 260 260
Wind_Speed
9 9 9 9 9 9 8 8 8 8 8 9 9 9 9 8 8 9 7 7 7 7 7 6 6 6 6 7 7 6 6 6 6 6 6 6 6 6 6 6 6 6 6 6 6 5 5 5 5 5 5 5 5 6 6 5 3 3 3 4 5 6 5 5 3 3 6 8 7 7 8 9 12 10 9 7 6 5 4 4 4 3 3 2 3
9 9 9 9 9 10 8 7 8 10 10 10 10 10 10 10 10 9 7 8 8 8 7 7 6 6 5 5 5 5 5 6 6 6 6 5 6 6 6 6 6 6 6 6 6 6 5 5 6 6 6 6 6 6 5 4 4 4 3 4 4 5 5 4 4 4 6 7 9 9 9 9 8 6 7 7 6 4 4 4 3 3 3 2 3
11 11 11 11 12 11 10 9 9 10 10 11 11 11 11 10 9 9 7 7 7 8 7 6 6 6 6 6 6 6 5 5 5 5 5 4 4 5 6 6 7 6 7 6 6 6 6 7 7 6 7 6 6 6 6 6 6 6 5 4 5 5 6 5 5 3 5 7 8 10 9 8 5 4 7 6 5 6 5 5 4 3 3 3 3
14 14 14 13 13 12 11 10 10 10 10 10 10 11 9 9 8 8 7 7 6 6 6 6 6 5 4 4 5 6 6 6 6 6 6 8 9 8 7 7 7 7 7 7 6 7 8 8 7 7 7 7 7 7 7 7 6 5 5 5 4 5 5 5 2 2 3 5 6 5 9 9 10 6 3 3 8 8 6 5 4 4 4 3 3
14 14 14 14 14 13 13 12 10 10 10 10 10 9 7 9 8 7 6 6 6 5 6 5 4 5 5 6 6 6 7 7 7 8 9 9 8 7 7 8 7 7 7 8 7 7 7 7 7 7 7 7 7 7 7 7 7 6 6 5 5 5 6 5 4 2 3 3 5 6 5 5 6 7 10 9 7 6 6 6 5 5 4 4 4
14 14 14 14 14 13 12 12 11 10 9 9 8 8 7 6 6 6 5 4 5 5 5 4 4 4 4 5 5 5 6 6 6 6 4 4 5 5 5 5 6 6 6 7 7 7 7 7 8 7 7 7 7 7 7 6 6 6 6 5 5 5 5 6 4 5 3 5 5 6 6 5 7 9 9 9 5 1 5 6 6 5 5 5 4
12 12 13 13 13 12 12 11 11 10 8 7 7 6 6 4 4 4 4 4 4 4 4 4 4 4 5 5 5 5 6 5 5 5 4 5 4 5 4 4 5 6 6 7 6 7 7 7 7 7 7 7 7 6 7 7 6 5 5 4 4 3 4 4 6 5 5 5 6 6 7 7 7 7 6 9 10 7 6 5 5 6 6 6 5
13 14 13 12 12 12 12 11 9 8 7 6 5 5 5 5 5 5 4 4 3 3 4 4 3 4 4 5 4 5 5 6 5 5 5 4 5 6 5 5 5 6 6 6 6 6 6 7 7 7 7 7 7 6 6 6 5 4 4 4 3 4 5 4 5 5 5 4 4 4 5 6 7 8 9 7 9 11 10 8 9 7 7 6 7
14 12 14 14 12 11 10 10 8 8 7 7 6 6 6 6 5 5 4 4 3 3 3 4 3 2 2 3 4 4 4 4 4 4 5 5 6 5 6 6 6 6 6 7 6 6 6 6 6 7 7 7 6 6 6 6 6 5 4 5 5 5 4 4 2 3 5 5 5 5 5 5 6 7 7 7 8 8 11 9 8 8 8 6 6
12 11 11 11 11 10 9 10 9 7 7 7 7 6 6 6 6 6 5 4 4 3 3 3 3 3 3 3 4 4 4 4 4 5 5 5 6 6 6 6 5 5 5 6 6 6 6 6 6 6 6 6 5 6 5 5 5 6 6 5 5 5 4 4 4 4 4 4 4 5 5 4 4 4 6 8 8 10 11 10 9 10 10 9 6
9 10 10 11 10 10 10 10 10 9 8 8 8 7 7 7 7 7 6 5 4 4 3 3 2 3 3 3 4 5 6 6 6 6 6 6 6 6 6 6 5 6 5 5 6 6 6 5 5 5 4 5 5 5 5 5 5 5 5 6 6 6 5 4 4 3 3 4 4 4 5 5 5 4 5 6 6 7 8 9 9 8 9 10 7
10 10 11 11 11 10 10 10 10 10 9 9 8 8 8 8 8 8 7 6 5 4 4 3 2 2 2 3 4 5 5 5 6 7 7 7 7 7 6 6 6 5 5 6 6 5 4 5 4 4 5 5 5 5 4 4 4 4 5 5 5 6 5 5 4 4 5 3 4 4 5 5 5 6 6 6 6 7 8 10 9 9 10 9 9
10 10 10 8 9 11 11 11 11 10 10 10 10 8 8 8 9 8 7 6 5 4 3 3 1 1 0 2 4 3 4 5 6 7 7 6 6 6 6 6 6 6 6 5 5 5 4 5 4 4 4 4 4 4 5 5 5 5 5 5 5 5 4 5 4 5 4 4 3 3 3 4 5 5 5 6 6 6 7 9 9 9 10 10 9
9 8 7 8 9 8 11 11 10 10 11 10 10 9 8 7 8 8 7 5 4 4 3 2 2 1 0 2 2 3 4 4 5 5 6 5 5 6 6 6 6 6 6 5 5 5 5 3 3 4 5 4 4 4 5 4 5 5 5 5 5 5 5 5 4 4 4 4 4 4 5 5 5 5 5 6 6 5 6 7 8 8 8 10 9
5 6 7 8 9 12 11 10 10 10 11 10 9 9 8 8 7 8 7 6 5 4 3 2 2 2 1 1 1 2 2 3 3 4 4 5 5 5 6 6 6 6 6 5 5 5 4 3 4 4 4 4 4 4 4 4 5 5 5 5 4 4 4 4 4 4 4 5 5 4 4 5 5 5 5 5 5 6 6 5 6 8 9 8 9
5 6 7 7 11 11 10 10 10 10 11 9 10 9 8 8 7 7 7 6 5 4 3 3 2 2 2 1 1 1 1 2 3 2 3 4 5 5 6 6 6 6 5 5 6 2 2 3 4 4 4 4 4 4 4 4 4 5 5 4 5 4 4 5 5 5 6 6 6 5 4 5 5 5 5 5 5 5 5 6 6 6 7 10 8
6 6 7 11 10 10 10 11 10 10 10 10 10 9 9 8 8 7 7 5 5 4 4 3 2 2 2 2 1 1 1 1 2 3 4 4 4 5 5 5 6 5 5 4 3 2 2 2 3 3 3 3 4 4 4 4 4 4 5 5 5 5 5 5 5 5 5 5 5 6 4 4 5 5 5 5 5 6 6 6 6 6 6 8 8
6 7 8 10 10 11 10 10 10 11 10 10 10 8 8 7 8 8 7 7 6 5 4 4 3 3 2 2 1 1 0 1 2 2 2 3 3 3 4 4 4 4 4 2 2 2 2 1 3 3 2 3 3 3 4 4 5 5 5 5 5 5 5 5 5 5 5 5 5 5 5 3 5 5 5 5 5 4 5 5 5 6 6 8 8
8 10 10 10 10 11 11 11 11 10 10 10 9 8 8 7 7 7 7 7 6 4 4 3 3 3 2 2 2 1 0 0 1 1 2 2 2 3 3 3 3 3 2 2 1 1 1 1 1 2 3 3 4 4 4 4 5 5 5 5 5 5 5 6 5 5 5 5 5 6 5 4 5 4 5 4 6 5 5 5 6 6 6 7 8
10 11 11 11 11 12 12 12 12 12 11 10 10 8 9 8 8 7 7 6 6 5 5 4 4 4 3 3 2 2 1 1 2 0 1 1 2 2 2 2 3 2 2 1 1 0 0 0 1 2 3 3 4 4 4 5 5 5 5 5 5 6 6 6 6 5 4 5 5 6 6 6 5 5 4 4 5 5 5 6 6 6 7 7 7
12 12 12 12 12 12 11 11 10 10 9 10 9 10 9 8 8 8 8 7 6 5 5 4 4 4 4 4 3 2 3 2 2 0 0 1 2 2 2 3 1 1 2 1 0 0 0 1 1 2 3 3 4 4 4 5 6 6 6 6 6 6 6 6 6 6 6 6 6 6 6 6 6 5 5 5 5 5 5 6 6 6 7 7 8
12 12 12 12 12 12 11 10 10 10 10 11 9 9 9 8 8 7 7 6 6 6 5 5 4 4 4 3 3 3 3 1 1 1 1 0 1 2 2 2 1 1 1 1 0 0 1 2 3 4 4 4 5 5 5 5 6 6 7 5 5 6 7 7 6 7 7 6 6 6 5 6 7 6 6 6 6 6 6 6 7 7 7 7 8
12 12 11 11 12 12 12 13 12 12 11 11 10 9 9 9 9 8 7 7 7 6 5 5 5 5 5 4 4 3 2 2 3 3 2 0 0 1 1 1 1 1 0 1 1 1 3 3 4 4 4 5 6 5 6 6 6 6 6 6 6 6 7 7 7 7 7 6 6 5 6 7 6 6 7 8 7 7 7 8 8 7 8 8 9
11 11 10 11 11 12 11 12 12 11 11 11 9 9 9 9 8 8 8 8 7 6 6 5 5 5 5 4 5 3 3 3 2 2 1 0 1 1 1 1 1 1 1 2 3 4 4 5 5 5 5 6 6 6 6 7 7 6 7 7 7 7 7 7 8 7 6 6 5 6 8 9 8 8 8 8 8 7 8 8 9 9 9 10 10
12 13 13 12 12 13 13 13 12 12 11 11 11 10 10 9 8 8 8 8 7 6 6 6 6 6 6 5 5 4 4 3 3 1 1 0 1 1 2 1 2 2 4 4 4 4 5 5 5 6 6 7 7 7 7 7 7 7 7 7 7 6 5 5 6 7 7 6 8 9 9 8 8 9 9 8 7 8 8 9 9 9 9 9 8
14 14 13 15 14 13 12 13 12 12 11 11 11 10 10 9 9 8 8 8 8 6 6 6 6 7 6 5 3 3 4 4 2 1 0 1 1 2 2 3 3 4 4 4 5 5 5 6 6 7 7 8 8 8 8 8 8 9 9 8 7 7 7 8 9 9 9 9 9 9 9 9 8 7 9 9 8 9 8 8 9 8 9 9 10
16 15 13 12 12 15 15 14 13 12 12 11 11 11 10 9 9 8 7 7 7 7 7 7 7 7 4 5 4 5 4 3 2 1 1 1 2 3 3 3 3 3 3 4 4 5 5 6 6 7 7 8 8 8 8 9 9 9 8 7 8 9 9 9 9 10 10 10 10 9 8 8 7 7 7 7 7 8 8 9 9 9 9 9 8
11 12 14 16 15 14 15 15 14 13 12 11 11 10 10 9 9 8 8 7 6 7 7 6 6 5 6 6 6 5 3 1 1 1 2 3 3 3 3 2 2 3 4 4 4 4 5 5 6 6 6 6 7 6 8 8 8 7 6 6 9 9 10 10 9 10 10 9 9 9 8 7 7 7 8 8 9 9 8 9 9 9 9 9 9
14 15 15 15 15 15 16 15 14 14 14 13 11 10 9 8 8 8 6 6 8 8 8 8 7 7 7 6 6 2 2 2 1 2 3 5 4 3 3 2 3 4 2 4 4 4 5 5 6 6 7 5 5 5 5 5 5 5 3 5 7 7 8 8 8 9 10 9 8 8 9 8 9 13 16 15 13 12 8 9 10 8 9 10 10
15 15 16 15 15 15 15 15 15 15 14 13 11 11 10 9 8 8 8 8 8 8 8 7 8 7 6 3 3 3 2 2 3 4 5 5 4 3 2 2 4 4 3 3 3 3 4 4 5 5 5 4 4 4 6 10 10 6 4 5 6 7 8 8 8 9 10 10 10 10 10 17 18 19 19 20 20 20 20 14 9 7 9 10 10
15 14 15 15 15 15 15 15 15 15 15 13 11 10 10 9 8 8 8 8 9 9 8 8 7 6 3 4 2 3 3 4 4 5 3 3 3 2 2 2 3 3 4 4 5 5 4 4 4 4 4 4 4 4 10 12 15 18 12 10 10 10 9 10 10 12 12 11 10 10 10 14 17 18 17 22 21 22 22 23 24 22 17 12 11
14 15 14 14 15 15 15 16 15 15 14 12 11 10 10 9 9 8 9 8 9 8 7 6 5 4 4 3 3 4 4 5 5 4 3 3 2 2 3 3 4 4 5 4 4 4 4 4 5 4 5 5 5 9 14 15 17 18 17 12 11 11 11 11 10 10 10 10 11 11 10 10 10 12 12 13 18 21 22 23 23 23 24 25 23
14 12 13 14 15 15 15 14 13 13 13 13 11 10 10 10 9 9 8 9 7 6 5 4 4 4 4 4 5 5 5 4 4 4 3 3 3 3 4 4 5 5 4 4 5 5 5 5 5 5 5 5 6 11 15 18 18 19 20 17 12 12 12 12 10 11 12 12 11 11 12 11 9 19 16 13 12 12 18 23 23 24 25 25 25
11 12 12 12 11 11 12 13 13 12 12 12 11 10 9 9 9 9 9 7 7 5 5 4 5 5 5 5 5 5 5 5 4 4 4 4 4 4 4 4 4 4 4 5 6 7 6 5 5 6 6 6 7 10 15 17 18 19 20 18 12 11 12 12 11 10 10 10 11 11 11 11 10 11 11 11 10 11 11 11 12 13 13 18 24
10 10 11 12 12 12 11 12 12 12 12 11 10 10 9 9 9 9 8 7 6 5 5 5 6 6 6 6 6 5 5 5 5 4 4 4 4 4 4 4 5 5 5 6 6 6 6 6 6 5 5 7 7 13 15 18 18 19 20 19 12 11 12 12 11 11 12 14 14 14 15 14 12 11 11 11 10 11 11 11 12 12 12 12 12
9 10 10 11 12 13 13 12 11 12 11 11 10 9 9 8 7 7 6 5 5 5 6 6 6 6 7 6 6 5 5 5 5 4 4 5 4 4 5 5 5 6 6 6 6 6 6 6 6 6 6 9 8 16 18 19 19 19 21 14 12 11 12 12 12 12 12 13 13 13 13 12 12 13 16 22 19 13 11 12 14 13 12 12 12
7 8 9 9 10 10 11 12 11 11 11 11 10 10 8 7 6 5 6 6 6 7 7 7 7 7 7 6 6 6 5 5 4 4 4 4 5 5 5 4 5 6 6 7 7 7 7 7 7 7 7 8 8 13 17 18 19 20 17 12 12 12 12 13 12 11 12 13 13 13 14 13 13 13 18 23 23 22 14 13 12 13 14 12 11
6 6 8 9 9 10 11 11 12 11 11 10 10 9 8 7 7 7 7 7 7 8 7 7 8 7 6 6 6 5 5 5 5 5 5 4 4 5 5 5 6 6 7 7 6 7 7 7 7 8 7 7 8 11 16 17 18 19 17 13 12 12 13 13 13 12 12 13 14 21 19 14 14 14 20 23 24 20 14 14 15 15 16 13 13
7 9 10 10 10 11 11 11 11 12 10 10 10 10 8 7 8 8 8 8 8 8 8 7 7 6 6 5 5 5 5 5 5 5 5 5 6 6 5 5 6 6 7 7 7 8 8 8 8 8 11 12 10 11 16 17 18 18 15 12 12 12 12 13 12 13 12 12 13 15 22 20 17 19 24 24 26 22 16 15 14 14 17 19 16
6 7 8 10 10 11 9 10 11 10 11 10 10 8 8 8 8 8 8 9 9 8 8 6 5 5 5 5 5 5 5 5 5 5 5 6 5 5 6 6 6 6 7 7 7 7 8 8 7 8 8 8 9 9 11 19 19 19 20 13 11 12 13 13 13 12 13 12 13 12 15 22 26 26 27 28 27 28 18 14 13 14 15 18 12
7 8 8 8 8 7 9 11 8 10 10 10 8 8 8 8 8 8 10 9 7 6 6 6 6 5 6 6 5 5 6 5 5 5 6 7 6 6 6 6 7 7 7 7 8 8 8 9 8 8 8 9 9 10 11 20 21 21 22 19 12 13 13 13 12 13 13 13 12 12 12 17 22 24 25 27 27 27 25 16 13 14 15 16 15
5 8 9 7 7 6 8 8 8 9 9 8 9 8 8 8 8 9 9 6 6 6 6 6 6 6 6 6 6 5 5 5 6 5 7 7 6 6 6 7 7 6 8 9 10 10 10 9 8 9 9 10 10 14 10 15 20 21 21 23 15 13 13 12 13 14 13 13 13 12 11 14 20 22 23 25 28 27 28 17 14 21 25 27 19
8 8 8 7 7 7 7 9 8 9 8 8 9 9 8 7 9 9 6 6 6 6 6 6 6 6 6 6 5 6 5 5 6 6 6 7 6 6 8 7 8 8 10 11 10 10 10 9 9 9 9 9 9 9 16 13 17 21 21 21 22 18 21 16 13 13 13 13 13 13 14 20 22 23 24 25 26 27 23 17 23 23 24 26 22
8 9 10 8 7 7 8 8 8 8 8 8 9 8 7 8 10 5 6 6 6 6 6 6 6 6 5 6 6 6 6 6 6 6 7 7 7 7 7 8 7 8 8 9 9 8 8 9 9 9 9 8 8 8 11 16 14 18 19 20 21 22 22 16 14 13 13 14 13 13 14 21 23 24 26 27 27 26 17 23 23 22 21 19 10
10 10 10 8 8 10 9 9 8 9 8 8 7 8 8 9 7 6 7 6 6 6 6 6 6 5 6 6 6 6 6 8 7 7 8 8 8 8 8 8 8 9 9 8 8 8 8 8 8 9 8 8 7 8 8 10 15 16 19 20 20 21 20 21 16 13 13 13 17 23 25 25 26 27 27 26 22 22 24 21 19 17 17 8 4
8 8 9 8 7 8 9 10 8 9 8 7 7 8 9 8 6 6 6 6 6 6 6 6 6 6 6 6 7 7 8 9 9 8 9 8 8 7 8 7 7 8 9 9 8 8 8 8 9 8 8 8 7 7 8 8 8 12 14 18 21 19 19 20 20 17 20 23 24 25 27 26 24 21 16 12 10 10 15 19 21 19 10 9 9
9 9 9 8 8 8 9 10 9 9 8 7 8 7 7 5 6 6 6 6 6 6 6 6 7 6 6 6 7 7 6 7 9 8 8 9 8 9 9 8 7 8 8 8 8 8 8 9 9 8 8 8 8 7 7 7 6 7 8 9 11 12 16 17 14 12 15 15 18 19 16 20 19 23 24 23 21 19 16 14 11 10 10 9 9
6 7 9 7 8 8 9 9 9 8 8 7 7 7 6 6 6 6 6 6 6 7 6 6 6 6 5 6 7 8 8 7 7 7 8 8 9 9 9 9 8 8 7 8 8 9 9 9 8 8 8 8 8 7 7 7 8 8 8 8 8 9 8 7 9 9 9 11 11 13 16 13 13 13 13 12 13 12 12 12 11 10 9 9 11
7 8 9 9 8 8 8 8 7 7 7 7 7 7 7 8 7 7 7 7 6 6 6 6 7 6 7 6 7 8 8 7 7 7 8 9 9 9 9 10 10 8 9 9 8 9 9 8 8 8 8 8 8 10 9 11 13 16 14 11 10 10 11 10 12 15 11 9 9 10 10 11 10 11 11 11 11 11 11 11 11 10 10 9 9
5 5 7 6 6 7 7 7 6 6 7 7 7 6 6 7 7 7 7 8 7 6 6 6 7 7 7 8 8 7 8 9 7 7 8 10 13 17 14 10 9 13 19 20 17 12 10 8 9 10 9 10 10 10 17 22 22 22 23 24 24 23 20 15 15 19 15 12 11 10 11 10 10 10 11 11 11 11 11 11 10 12 12 11 11
6 6 6 7 6 6 6 6 6 6 6 6 6 6 6 7 7 7 8 8 8 6 6 7 7 8 8 7 7 7 7 7 7 8 8 9 9 9 18 23 22 19 18 21 23 25 26 24 16 11 11 23 25 25 25 22 23 23 24 19 15 14 15 18 19 15 13 13 11 10 11 12 12 11 12 13 11 11 11 11 11 10 10 11 11
Wind_Direction
207 206 198 191 189 194 198 197 201 202 206 210 212 214 216 217 217 219 213 210 207 205 211 211 215 220 226 235 240 237 231 226 224 223 225 232 225 213 214 216 220 221 213 214 224 230 237 249 246 233 225 232 239 246 249 250 247 260 266 276 274 275 278 270 267 290 298 288 272 285 297 287 273 257 251 264 245 250 271 272 270 266 278 270 276
198 184 183 187 195 195 194 200 200 205 206 208 212 212 212 215 220 218 215 208 209 215 215 216 219 227 238 236 240 248 248 239 239 243 241 230 227 225 219 223 223 219 220 221 227 231 240 246 246 246 239 240 245 250 252 233 227 234 235 260 249 256 272 279 277 296 286 297 316 307 292 278 262 231 207 233 252 260 242 249 241 261 272 284 291
188 193 189 194 193 191 192 196 202 210 209 208 210 211 213 213 216 219 218 212 209 211 221 224 226 229 237 255 262 268 266 269 274 276 274 263 240 228 230 233 226 220 221 223 230 234 239 248 253 252 249 248 250 248 239 236 232 223 222 250 281 282 280 274 248 249 293 310 297 288 290 303 307 252 225 214 230 217 224 216 225 238 227 256 275
198 198 197 196 191 188 192 196 201 200 208 209 204 207 209 210 209 207 211 212 215 213 213 232 249 264 261 263 271 274 274 284 281 270 261 257 252 246 240 231 229 231 227 225 229 230 237 244 249 248 248 245 243 248 250 248 233 224 212 219 230 270 273 280 132 177 288 320 309 298 310 308 299 282 331 185 198 219 243 224 208 205 228 233 249
203 200 198 195 191 191 193 195 192 196 200 204 201 199 200 203 203 204 207 214 217 220 220 222 236 240 245 250 251 256 255 253 252 253 249 245 247 244 238 227 227 228 231 232 235 238 239 242 247 253 255 253 250 249 252 252 248 233 224 221 232 257 272 271 268 216 208 240 275 302 299 272 273 314 353 296 297 260 215 233 227 203 218 231 241
207 206 203 199 192 187 188 185 187 193 198 200 201 200 195 196 202 201 210 216 220 221 219 222 222 230 231 231 228 226 235 219 224 234 234 229 223 216 211 204 215 226 232 237 236 238 243 244 245 248 250 251 246 248 251 254 246 232 223 221 238 246 256 270 262 268 236 226 234 250 276 291 307 314 315 297 303 75 270 242 223 228 221 237 245
212 213 209 198 188 182 180 179 184 190 193 182 181 183 185 191 180 190 195 196 204 206 198 199 219 226 231 241 257 270 278 280 293 301 295 284 284 280 274 248 230 226 227 229 235 237 241 244 247 244 245 252 250 245 245 247 249 234 221 217 236 237 240 252 259 265 269 238 220 237 254 262 283 303 286 301 294 283 281 283 222 228 232 228 235
204 205 201 190 182 182 182 181 182 181 163 149 154 155 167 168 169 177 181 189 173 168 182 198 223 222 225 237 246 256 261 275 287 288 293 295 287 280 275 264 254 242 237 232 237 233 236 242 245 246 243 244 246 245 242 247 246 228 200 223 225 247 250 253 259 262 261 273 275 257 247 257 265 264 272 275 283 291 282 283 287 265 223 234 238
204 198 197 192 192 187 184 168 155 138 136 148 153 157 154 157 161 158 165 165 153 159 173 188 214 233 243 238 244 246 258 270 278 275 271 269 268 266 260 260 256 248 241 235 228 233 234 238 245 247 244 241 241 242 244 245 242 232 205 207 220 237 240 239 244 250 264 268 276 271 263 271 271 273 273 265 266 277 279 281 283 283 283 235 225
201 185 176 176 174 164 151 131 127 133 135 138 141 143 145 143 150 148 155 149 130 140 161 182 187 211 228 243 257 266 268 268 264 269 270 270 269 265 264 260 257 254 246 235 228 229 231 233 239 246 251 249 248 251 253 253 241 236 242 234 229 221 237 231 230 248 264 274 286 282 289 284 271 260 252 258 265 260 274 285 289 293 286 285 288
158 156 148 140 136 132 133 137 137 134 140 143 146 148 145 145 147 143 134 124 123 128 135 153 172 203 224 237 248 259 268 269 270 269 268 267 268 270 269 269 269 267 262 253 233 224 235 241 242 250 258 256 252 251 245 244 235 234 237 236 233 228 231 236 238 242 255 267 266 273 273 271 276 280 286 287 277 279 280 277 281 280 284 288 282
158 149 144 137 134 139 141 138 143 143 144 146 144 142 143 141 138 131 126 121 118 114 120 128 151 188 230 248 257 266 267 268 270 274 276 276 275 274 273 273 269 269 267 264 252 232 229 241 244 246 251 251 250 249 254 246 232 232 232 228 224 220 228 230 232 232 236 247 254 263 262 267 273 274 280 279 283 285 290 292 295 303 300 290 296
160 156 147 149 151 151 151 148 146 151 153 150 144 141 139 140 141 137 130 126 119 122 126 127 159 174 276 275 271 278 280 279 279 277 277 274 275 274 278 278 277 270 266 264 263 243 228 229 240 248 254 249 241 251 259 249 237 232 228 226 227 224 217 217 230 238 231 245 261 266 265 271 266 276 280 278 282 286 284 287 284 291 288 289 293
160 154 151 154 154 152 152 152 154 154 152 147 144 142 140 143 146 137 127 125 126 130 134 138 142 136 264 288 307 298 296 295 290 287 287 285 285 283 281 279 279 278 277 275 277 282 279 258 258 271 271 272 265 251 252 247 233 238 239 230 229 224 227 229 229 234 245 249 253 251 263 267 274 277 275 279 281 276 276 277 289 287 283 286 291
156 150 156 155 153 155 156 157 155 155 153 147 147 148 147 147 144 140 136 137 142 143 139 150 156 147 123 51 337 334 305 305 291 293 294 293 293 295 289 282 279 279 277 275 274 266 269 280 284 281 277 268 260 255 245 237 225 231 241 233 229 233 231 221 228 226 232 240 244 255 261 262 264 260 266 271 268 272 276 281 287 292 288 283 286
153 150 150 152 155 155 156 158 157 156 154 151 150 151 152 147 144 144 143 144 145 147 152 155 154 135 115 99 55 27 329 304 289 298 321 318 307 296 284 277 270 269 277 277 274 286 275 282 281 263 267 263 254 248 235 227 220 220 231 228 221 231 225 231 234 235 238 236 235 242 246 254 257 261 269 267 269 272 273 275 279 278 286 291 288
162 162 160 159 159 162 161 160 158 157 157 156 154 155 151 145 148 150 152 149 149 159 159 150 147 141 120 91 58 42 346 326 307 329 315 302 288 279 279 286 286 276 267 277 343 323 306 297 277 272 254 254 253 244 226 229 226 219 229 233 223 222 222 228 233 244 239 228 236 230 239 249 253 261 259 257 263 266 268 270 266 266 273 277 286
164 164 164 165 166 165 164 164 162 160 155 149 146 144 145 151 155 158 159 159 162 163 164 151 151 148 140 136 116 119 65 326 324 335 310 310 315 314 311 307 315 322 331 320 314 318 302 281 261 261 248 240 235 232 223 227 225 229 227 228 227 225 229 235 233 232 237 244 242 235 236 242 250 252 256 267 270 269 272 268 263 266 264 265 271
173 177 174 174 174 172 168 165 160 152 147 148 147 148 150 153 157 160 160 162 163 159 158 157 154 159 161 163 167 157 144 81 307 336 315 339 329 340 321 323 333 329 326 355 334 287 262 246 229 237 224 220 226 225 225 222 225 230 233 226 227 223 227 230 236 234 239 236 240 241 245 252 257 253 259 259 256 256 256 255 262 260 257 262 266
179 180 181 178 176 174 169 163 159 156 154 153 154 156 160 156 160 159 161 161 163 162 161 171 167 164 175 173 170 127 238 126 294 328 12 13 348 349 352 348 9 343 29 358 349 33 301 232 240 203 223 218 223 223 218 227 224 227 231 235 224 219 227 231 234 233 222 232 238 242 246 253 256 258 259 253 252 253 250 255 254 251 254 253 256
183 182 179 177 176 171 167 161 157 156 156 158 163 163 162 160 164 169 170 166 170 165 173 177 173 175 175 187 182 166 225 150 251 142 127 49 358 7 20 4 20 7 40 354 43 40 231 217 220 231 214 227 225 225 224 220 227 230 232 227 235 231 225 232 233 237 233 224 227 232 242 248 253 260 260 262 261 256 255 253 251 253 252 250 250
183 181 176 175 173 170 164 163 161 164 165 168 167 164 166 169 170 172 175 176 173 176 177 178 181 180 183 185 195 186 220 176 237 201 168 103 19 37 24 11 1 2 46 346 359 263 218 211 219 232 230 231 244 233 235 229 225 232 231 232 230 234 236 234 237 238 239 234 230 234 237 241 250 254 257 260 264 266 266 261 255 252 253 255 249
182 178 177 175 173 171 171 170 172 173 173 172 170 170 171 173 174 178 179 178 172 177 172 182 184 185 183 191 197 206 192 224 207 233 171 157 17 30 26 16 340 304 227 210 228 227 230 229 229 229 227 241 245 243 242 240 241 236 237 237 232 234 239 243 243 242 240 239 239 242 243 250 261 265 264 264 260 264 264 263 264 264 264 262 260
180 179 177 175 173 172 170 175 178 180 179 178 175 174 173 176 178 179 182 176 173 179 180 180 188 188 187 199 194 190 193 220 211 223 142 43 350 304 261 257 268 279 280 268 232 237 233 232 237 236 240 240 243 247 246 252 248 249 247 243 243 242 240 241 244 248 248 247 245 247 258 266 262 264 268 267 266 261 262 263 263 260 259 261 262
183 184 181 175 175 178 182 182 184 182 179 179 180 178 176 179 175 180 183 175 177 176 177 188 189 192 193 195 193 186 202 214 209 211 124 357 285 272 279 268 263 256 251 245 245 236 238 244 242 247 251 253 250 250 248 248 249 249 250 253 252 251 252 253 252 252 249 246 253 257 259 254 257 262 267 267 267 265 262 263 264 261 261 261 261
186 183 181 185 185 185 183 184 184 183 181 180 180 179 178 178 178 180 179 174 178 177 180 191 195 192 192 196 206 208 209 212 191 178 162 239 260 266 257 254 246 253 257 264 257 256 253 257 260 260 257 258 258 255 253 252 250 251 255 258 257 258 258 259 258 257 257 258 258 256 251 250 253 249 258 265 263 264 269 265 263 264 266 270 267
189 188 188 183 185 191 190 186 186 182 181 179 178 178 178 178 176 178 179 180 178 177 179 192 200 195 185 196 206 203 198 185 172 169 252 255 255 253 251 255 271 274 272 268 273 272 274 269 265 262 261 260 260 260 259 256 253 254 257 259 261 261 261 260 259 258 258 258 257 259 256 252 245 242 244 246 250 252 252 255 257 259 260 259 263
191 190 189 192 193 191 190 188 186 181 179 178 179 177 178 177 176 178 177 177 181 178 180 193 202 201 186 203 206 205 179 154 155 224 244 251 248 248 251 264 279 275 268 269 269 273 273 271 271 273 273 271 265 259 255 257 257 258 262 263 261 258 261 261 259 258 258 254 254 255 248 234 228 230 232 234 236 242 242 251 250 253 252 252 252
197 198 196 194 193 191 190 186 185 180 178 177 175 176 176 175 175 177 174 180 184 183 188 192 197 203 208 202 200 162 125 141 184 221 236 238 241 247 253 262 269 270 275 271 273 273 272 274 274 270 269 269 269 268 272 262 264 274 271 261 253 252 252 253 254 254 255 256 251 245 237 231 229 231 232 231 228 226 228 240 244 242 247 249 251
204 202 199 197 195 190 187 184 182 181 178 177 177 177 178 177 178 177 179 183 184 191 191 194 199 201 205 196 139 121 152 187 213 231 234 234 235 244 247 253 262 265 261 266 270 268 266 266 266 266 267 268 264 262 254 253 253 250 242 242 245 248 250 251 253 252 252 249 246 242 237 232 231 234 237 242 245 244 240 235 235 233 233 239 240
208 204 201 197 192 189 184 183 183 182 181 179 178 176 176 178 179 177 185 187 185 193 196 197 202 205 179 108 144 174 188 220 231 230 231 233 242 247 256 259 264 261 258 259 256 253 252 257 260 261 262 262 262 259 256 256 260 260 258 254 249 243 236 236 237 243 246 243 240 236 233 235 237 242 246 248 246 245 245 246 244 240 237 235 235
213 204 196 192 189 187 185 184 184 180 179 178 175 176 175 180 179 179 185 188 187 189 195 198 189 120 118 155 197 212 224 229 230 231 231 235 237 246 254 259 259 258 259 259 259 258 259 256 252 250 247 249 253 254 258 260 263 263 261 258 256 256 248 237 232 231 233 237 242 242 240 234 230 230 230 239 243 244 246 246 246 246 244 240 237
228 206 194 191 190 189 186 182 179 178 177 178 173 171 178 177 181 180 180 187 187 185 187 166 121 151 182 200 217 225 228 227 226 230 237 240 241 247 250 255 257 260 263 261 259 259 256 253 247 245 246 250 252 258 263 265 265 265 265 263 262 259 259 260 249 235 231 235 241 244 245 240 231 235 233 229 228 235 243 246 248 249 248 246 246
226 209 194 190 186 183 183 179 175 173 169 170 171 172 173 174 176 173 178 182 174 175 165 165 178 195 207 215 220 222 224 227 228 231 234 237 239 245 250 256 263 263 260 258 257 254 252 244 241 240 248 253 254 255 263 266 267 267 266 265 263 263 263 264 263 264 263 258 249 248 248 246 246 242 236 229 224 226 231 237 243 245 245 246 248
214 203 192 186 179 174 168 167 168 165 162 162 168 168 166 169 170 172 174 173 166 159 169 187 200 209 212 214 216 217 221 224 228 230 233 238 241 249 254 257 258 258 257 254 252 252 247 243 240 239 250 261 257 261 266 268 268 267 267 267 265 264 261 259 255 248 250 252 251 252 252 253 251 245 239 232 226 228 224 223 232 236 238 240 238
206 191 185 176 173 171 167 165 156 151 158 163 165 160 160 165 159 162 156 144 148 171 193 197 207 209 210 211 210 215 218 221 225 230 235 242 247 248 251 257 260 263 263 260 259 257 257 251 242 238 242 255 254 264 268 269 268 268 268 267 266 264 263 262 262 262 261 258 254 251 250 248 246 248 245 246 245 241 232 225 228 232 235 236 238
202 181 172 165 159 155 153 146 148 153 157 163 159 155 153 148 146 149 143 161 176 194 202 203 206 207 206 208 209 210 215 219 226 232 239 242 246 251 255 256 258 257 258 256 254 255 255 250 244 234 230 245 253 263 267 268 268 267 267 265 265 264 262 260 259 259 258 256 253 250 248 248 246 245 246 248 252 253 248 239 231 228 232 232 234
138 129 130 137 139 137 141 142 145 154 157 154 152 150 148 151 159 162 171 185 193 205 204 205 207 205 205 203 205 207 211 219 225 232 240 247 245 250 248 246 250 257 258 256 257 259 256 252 248 247 240 245 257 262 266 269 268 266 263 260 258 258 258 257 258 254 255 255 251 248 245 244 245 246 246 249 251 251 247 246 247 246 243 233 234
155 148 141 140 142 142 141 139 146 155 158 152 149 149 153 167 173 178 186 194 203 206 204 203 205 203 199 196 197 204 212 217 224 231 235 243 250 248 252 253 253 256 258 258 258 257 256 254 249 246 250 259 261 262 264 270 271 270 266 262 261 260 260 259 259 259 256 255 254 251 249 247 245 246 247 250 252 251 248 245 244 244 246 248 248
140 131 135 132 128 127 137 152 161 159 150 150 148 154 166 175 183 183 194 202 206 203 202 202 200 196 191 191 193 197 212 217 225 231 239 243 248 252 248 250 253 254 258 260 258 257 257 257 258 255 252 250 253 253 251 265 266 266 265 260 255 253 255 256 254 255 256 253 251 250 250 249 251 251 251 252 251 249 240 235 235 241 242 245 243
151 140 126 133 148 154 159 162 154 146 146 150 151 161 178 184 185 191 204 205 200 195 196 196 195 189 190 195 199 201 208 218 227 234 235 242 239 244 250 247 254 255 259 263 262 265 265 263 260 256 256 255 248 250 248 263 265 265 263 262 257 253 253 254 255 255 252 252 251 250 250 248 250 252 254 255 257 257 258 246 228 230 235 239 237
133 134 145 148 150 150 145 140 142 146 145 153 159 173 181 181 187 203 205 193 185 186 188 194 195 192 196 201 204 211 207 215 224 221 240 244 232 238 249 252 252 255 258 257 261 259 258 261 262 258 253 250 243 242 246 255 263 265 264 260 257 253 250 251 254 254 254 253 252 253 251 250 251 254 256 256 256 258 261 263 254 248 241 239 242
156 163 173 152 152 161 163 156 149 148 151 160 167 178 179 180 197 208 190 179 178 182 191 192 193 195 195 198 206 208 215 212 220 227 233 243 244 240 248 240 244 254 258 260 259 255 256 260 258 255 254 248 241 238 241 245 253 261 263 262 259 256 252 250 248 247 247 251 251 251 252 253 254 257 258 258 258 259 262 261 261 260 259 258 255
182 179 170 161 158 161 158 156 152 158 160 166 173 179 180 188 209 188 167 166 173 182 191 192 191 196 199 211 214 214 215 218 224 230 237 238 241 241 248 242 238 240 249 251 251 242 241 244 246 251 248 248 242 240 238 239 242 254 260 262 262 260 257 252 251 253 256 256 256 253 253 253 255 257 256 253 252 255 255 256 262 268 272 275 280
180 182 170 170 169 166 163 161 163 165 164 168 175 178 181 201 205 163 161 167 180 187 185 191 196 202 207 206 209 220 221 231 228 226 233 239 239 234 242 244 239 240 242 249 250 249 248 251 254 255 257 256 251 249 252 246 246 245 254 259 261 262 262 260 260 260 260 259 257 257 256 254 252 253 257 267 274 278 281 284 285 285 284 285 253
170 170 168 175 165 163 163 169 170 170 169 170 180 181 191 202 165 156 160 170 180 183 192 196 201 204 205 217 225 230 230 231 228 232 237 239 243 241 244 245 237 241 240 240 246 246 250 250 252 254 255 257 254 252 255 255 250 251 252 257 261 264 266 263 261 262 261 262 263 265 267 273 277 279 280 275 271 269 271 274 276 275 268 262 258
181 175 155 167 166 170 176 176 178 176 174 176 180 192 197 171 164 158 165 168 183 192 199 204 206 217 222 215 220 232 231 224 222 228 236 241 241 244 244 243 239 242 243 247 248 247 249 249 247 252 256 256 256 255 257 256 250 248 242 239 242 246 251 255 258 258 259 260 260 259 258 258 259 265 267 267 267 269 270 268 265 258 252 251 249
177 158 163 167 174 179 178 181 185 177 171 176 178 186 185 172 164 167 166 173 188 200 206 213 217 224 228 229 235 229 224 239 228 224 232 237 235 234 237 234 230 230 235 243 242 243 244 244 248 249 253 254 255 253 253 255 257 248 246 246 248 252 243 230 240 240 236 238 240 245 250 251 256 258 259 255 254 252 253 253 250 248 245 243 246
172 169 169 180 178 182 182 180 183 170 165 172 181 186 180 177 173 162 165 178 201 206 217 225 227 226 236 235 239 245 238 230 233 232 237 242 247 244 235 238 230 227 235 243 250 251 248 248 248 252 254 262 261 260 259 260 260 256 254 255 254 253 256 247 234 234 238 239 235 243 246 247 243 245 242 243 241 242 240 238 239 240 242 241 241
169 152 174 181 179 181 182 182 180 166 166 174 180 183 176 177 169 167 168 195 198 209 215 223 226 231 235 237 241 237 241 243 240 245 250 255 245 246 246 243 247 237 236 241 246 248 244 242 248 244 232 242 254 248 264 274 276 276 274 271 270 269 263 254 247 248 249 250 244 237 236 234 236 234 236 237 237 233 233 234 233 231 232 233 234
159 153 174 186 190 185 187 181 180 164 167 167 177 180 173 171 167 166 176 193 192 208 222 232 222 230 231 231 228 234 228 232 238 248 251 259 269 254 249 249 247 245 244 248 253 256 260 259 256 257 236 229 233 244 256 266 276 278 279 291 305 304 296 290 285 283 271 262 257 246 239 236 237 239 242 243 240 240 239 237 237 235 233 229 229